Theta_e
298 298 299 299 299 299 298 298 298 298 298 297 298 298 298 298 298 298 297 299 299 297 298 298 297 297 297 295 294 296 294 293 290 288 292 291 296 296 297 296 297 298 294 291 293 293 298 301 300 301 298 300 302 302
294 295 296 297 297 297 297 296 296 296 295 295 296 297 297 297 297 297 296 296 298 295 297 297 297 297 297 296 295 291 293 293 289 289 287 289 292 290 296 297 297 295 297 297 300 299 300 299 300 299 299 301 302 301
293 294 294 293 293 294 294 294 294 294 294 294 295 297 297 296 296 296 296 295 295 289 292 293 294 297 297 297 297 293 294 294 294 290 287 287 293 291 291 295 296 295 297 297 298 298 300 300 299 300 300 301 300 300
291 291 292 292 293 293 294 294 294 295 295 294 294 295 296 296 296 295 296 295 295 289 291 295 296 296 297 296 296 296 295 295 293 291 291 291 293 293 293 294 294 294 295 295 296 296 296 297 298 298 298 300 300 300
291 291 291 291 291 291 291 291 291 291 292 292 292 294 295 295 295 295 295 295 295 291 291 291 293 296 296 297 296 296 294 292 292 292 292 296 292 293 292 293 295 293 295 294 295 295 296 296 296 299 298 298 298 298
291 292 292 293 293 292 292 292 292 292 292 292 291 294 295 294 293 293 290 293 295 295 290 290 291 294 296 297 295 294 293 292 292 292 292 292 293 292 291 294 294 294 295 295 296 295 295 295 295 298 298 298 298 298
291 291 292 293 292 292 292 293 293 293 293 293 293 295 292 291 294 290 292 294 295 295 287 289 290 292 294 294 292 292 292 291 292 293 292 292 292 293 291 295 294 294 295 294 294 295 297 298 297 297 297 297 297 296
290 290 291 291 291 291 290 290 291 291 291 292 293 291 293 294 294 293 292 291 294 293 290 289 289 290 295 290 290 290 292 291 291 291 292 292 292 294 297 296 295 295 296 298 298 298 298 298 297 297 297 296 296 296
290 291 290 290 290 290 289 290 290 290 290 291 292 292 293 294 291 292 293 293 293 292 287 288 289 286 293 292 292 291 291 288 292 292 294 294 297 298 297 297 297 297 297 298 297 297 296 296 296 296 296 296 296 295
291 290 290 290 290 290 291 291 291 290 290 293 294 291 286 293 292 293 292 286 285 287 287 289 290 289 291 291 288 289 291 295 294 295 293 295 296 296 296 296 295 296 296 296 296 295 294 294 295 296 293 293 293 294
292 291 290 290 290 290 291 291 290 292 294 294 293 293 293 292 293 293 292 290 287 291 289 290 291 292 291 291 292 291 291 295 297 296 297 298 297 298 299 299 297 296 297 297 296 296 296 294 292 292 292 292 293 293
291 291 291 291 290 290 290 290 291 293 292 292 291 292 294 292 289 291 287 292 294 296 290 292 294 294 293 293 290 292 296 295 298 296 296 296 296 301 300 295 296 294 294 293 292 291 290 290 290 291 292 292 290 290
293 293 292 291 291 291 290 290 290 291 291 295 291 289 287 288 291 292 290 295 294 293 293 293 294 296 295 295 295 291 292 292 291 286 294 296 300 298 299 298 295 293 291 290 290 290 290 290 290 290 290 289 289 290
289 291 293 293 292 292 292 290 290 291 293 290 289 285 287 288 293 294 299 295 294 294 290 292 298 296 295 296 295 297 294 293 290 290 297 296 299 298 294 292 291 290 291 290 290 290 290 289 289 289 289 289 289 289
293 292 291 292 293 293 292 292 291 292 293 290 292 287 291 290 289 291 292 294 294 291 290 289 295 297 298 298 297 297 293 293 294 292 298 297 295 293 290 290 290 290 289 289 289 289 288 288 288 288 288 288 289 288
290 289 289 291 292 293 293 292 291 291 289 291 290 290 287 289 286 286 290 291 293 292 288 289 294 297 297 299 299 298 298 295 296 297 297 295 293 291 291 290 290 289 289 289 289 288 288 287 287 288 288 289 288 288
291 290 291 292 292 293 293 291 291 289 290 291 288 285 286 289 290 287 289 290 294 293 291 293 294 296 294 300 300 299 299 298 296 297 294 294 294 292 290 289 289 289 289 289 288 288 288 288 289 288 288 288 288 287
291 291 291 292 292 292 292 291 291 291 291 290 288 286 286 286 287 289 288 288 292 296 293 294 295 295 292 298 297 295 293 294 292 291 292 293 292 290 290 289 290 289 289 288 288 288 288 288 287 285 286 287 288 288
291 290 291 292 292 291 291 291 290 291 291 288 288 288 288 288 290 290 288 288 290 294 295 295 295 295 292 295 290 292 292 292 293 292 292 291 290 290 289 290 289 288 288 288 288 289 288 288 287 287 287 287 287 288
290 290 290 291 291 290 292 293 290 290 291 290 289 290 290 289 290 292 290 292 295 296 296 295 292 290 294 293 289 286 291 291 290 288 288 287 289 289 287 288 286 289 289 289 288 288 288 287 287 287 286 286 286 286
289 289 290 290 291 291 292 293 291 290 291 290 290 292 291 289 290 294 294 291 292 292 292 290 291 291 289 285 290 290 290 287 290 289 288 287 287 288 287 289 290 289 287 285 282 283 287 283 285 286 286 286 286 286
288 289 290 289 290 291 291 291 292 291 291 290 290 292 288 292 294 292 292 295 292 289 288 289 289 289 290 289 288 289 289 289 289 288 287 287 289 288 288 289 289 285 285 286 287 285 287 286 286 286 285 286 286 286
288 288 290 290 289 290 292 292 294 293 292 291 293 294 289 289 292 293 292 293 291 288 285 286 289 290 289 289 288 287 287 286 283 282 284 285 287 289 288 288 289 287 285 287 288 287 287 287 286 286 286 285 285 285
287 288 288 288 290 285 290 293 294 294 293 293 294 294 293 292 293 295 293 287 290 289 289 288 289 288 288 287 286 284 284 283 283 283 285 287 285 283 286 287 289 289 289 288 287 288 287 287 287 286 286 287 286 286
290 290 287 285 286 291 289 287 292 293 292 294 295 293 291 294 296 296 295 289 287 287 287 287 287 287 285 282 281 282 282 282 280 282 283 285 285 285 286 286 286 286 286 286 286 286 286 286 287 287 286 286 285 285
283 282 286 285 285 287 290 288 285 290 291 291 293 291 293 293 293 287 285 283 282 282 282 283 283 283 282 281 280 279 280 281 282 280 282 283 284 285 286 285 283 285 284 284 284 284 284 285 285 286 286 286 285 285
280 278 284 284 284 286 284 287 290 290 289 288 287 288 289 286 285 282 281 280 281 280 280 279 280 280 280 279 279 279 279 280 281 282 283 283 282 282 283 284 281 283 284 284 283 283 283 284 284 285 286 286 285 285
280 282 276 275 276 283 278 283 284 281 283 283 284 286 284 283 281 279 279 278 279 278 278 277 278 277 276 276 276 277 277 277 280 282 282 280 279 278 279 279 279 280 281 282 283 283 283 282 283 284 284 285 286 285
274 276 275 272 270 274 281 282 282 282 281 280 279 282 280 278 277 277 276 276 275 275 274 274 274 273 273 274 274 274 275 276 274 270 269 267 267 274 274 275 276 277 278 280 282 283 283 283 282 282 283 284 285 283
272 276 275 271 271 279 276 277 276 274 277 278 279 279 278 275 274 274 274 273 273 272 272 272 272 271 270 270 270 271 273 274 275 273 266 266 269 272 272 273 274 275 276 277 278 280 281 282 282 282 282 282 283 283
278 275 272 277 275 271 271 268 267 270 267 271 268 275 274 273 274 273 272 272 272 271 271 271 271 271 270 270 270 269 269 273 273 274 274 273 273 272 272 273 273 274 275 276 277 278 279 280 281 282 282 281 280 279
267 271 272 273 271 272 266 266 264 266 263 268 276 278 276 275 273 270 272 271 271 271 271 271 270 270 270 270 271 271 271 272 273 274 274 273 272 271 271 271 272 273 274 275 276 277 278 279 280 279 277 275 275 273
266 267 273 270 269 270 267 267 267 268 266 273 273 275 275 274 272 270 271 271 270 270 270 270 270 270 270 270 270 271 272 273 273 273 272 272 271 270 270 270 271 273 273 274 274 275 275 274 273 272 271 270 269 269
Wind_Speed
45 45 45 45 45 44 43 41 37 33 32 35 36 33 30 25 22 31 18 16 11 4 6 7 4 6 4 4 4 4 4 4 3 3 3 3 3 4 3 3 3 4 3 3 1 3 8 4 6 3 7 5 3 4
41 41 40 39 38 38 38 36 34 33 32 31 33 31 27 25 26 31 14 20 16 6 3 12 18 16 10 6 6 3 5 3 3 4 1 3 2 1 2 2 2 2 5 3 4 3 6 12 8 18 6 6 5 5
37 37 36 35 34 34 33 32 31 31 30 28 29 30 29 29 28 29 24 11 12 4 4 5 5 10 11 15 11 4 2 4 3 3 3 2 1 3 3 4 4 3 1 2 2 5 12 12 9 7 7 10 9 10
31 31 31 31 31 31 30 29 29 27 26 25 24 26 27 27 25 29 27 17 10 4 4 3 7 5 7 10 12 11 10 7 6 3 2 2 2 4 3 4 4 5 1 6 10 15 10 12 7 9 8 11 10 10
27 27 27 28 27 27 26 25 25 24 23 23 23 23 23 22 23 29 32 26 19 5 3 1 5 6 4 6 10 11 10 5 3 2 2 3 2 1 2 1 8 5 7 4 7 10 6 11 6 4 4 5 7 8
25 25 25 25 25 24 24 24 23 22 22 21 21 21 18 15 10 10 5 19 16 8 3 2 5 4 4 11 9 4 4 3 3 4 3 3 4 4 3 3 6 7 5 7 9 8 11 17 13 5 5 5 5 5
21 22 22 22 23 23 23 23 23 22 20 21 22 21 22 21 21 7 4 4 8 8 3 3 3 4 3 4 2 2 4 3 4 3 3 4 3 5 3 11 14 14 17 17 13 13 8 4 5 5 5 6 9 6
17 18 18 18 19 19 20 20 19 18 18 18 16 15 15 14 13 12 15 9 6 6 3 3 2 3 4 1 1 1 2 2 1 4 1 3 2 3 5 10 8 11 10 6 7 4 6 9 5 6 5 5 7 6
13 13 13 13 14 15 15 15 14 13 13 11 9 8 7 9 5 4 9 10 10 6 3 2 3 2 2 1 2 2 2 1 1 3 3 3 2 5 10 10 10 9 5 6 7 5 6 6 6 6 7 8 8 6
11 11 10 10 10 10 10 11 10 9 7 5 4 5 3 4 6 3 4 3 4 3 3 1 0 1 3 2 2 2 1 2 1 4 2 2 4 9 8 10 9 7 6 6 5 7 3 5 6 4 5 6 7 10
7 8 9 8 8 8 8 8 9 7 6 6 4 3 3 2 2 2 2 2 1 2 1 2 3 1 2 2 2 2 2 2 2 3 4 2 3 2 5 4 6 4 4 5 4 5 4 4 5 6 7 6 5 7
4 5 5 6 6 6 6 7 9 13 6 6 3 2 1 3 3 3 1 1 2 2 1 3 2 2 1 2 2 2 2 1 4 2 1 3 3 5 6 3 5 7 7 7 6 6 6 6 5 5 6 6 6 11
2 2 3 3 4 4 5 5 6 7 8 3 2 2 3 3 1 3 1 1 1 2 2 2 1 2 1 1 1 1 1 4 1 2 3 3 2 3 6 0 3 5 5 4 6 7 9 7 9 7 7 12 15 13
3 3 3 4 4 3 3 3 5 6 3 2 2 3 2 2 3 3 1 3 4 3 2 3 2 3 2 3 2 2 4 2 3 0 4 2 4 2 5 5 4 5 6 9 7 7 7 7 7 11 12 13 13 10
5 5 5 6 5 5 3 1 3 5 4 1 1 3 4 3 2 3 3 2 2 2 2 2 0 3 2 2 3 2 2 3 5 4 0 4 6 4 5 6 7 5 5 7 6 6 6 7 7 8 13 15 13 13
8 8 5 7 4 5 6 4 2 3 3 1 2 2 2 2 4 3 1 2 1 1 1 2 1 2 4 2 4 6 3 4 1 2 1 1 2 2 0 4 4 4 5 5 5 6 8 8 7 10 16 11 10 11
7 3 10 5 2 5 9 4 2 1 2 3 3 2 3 2 4 3 3 3 3 2 1 2 3 7 2 3 4 3 2 2 2 1 2 4 3 1 1 2 5 4 5 5 7 8 8 13 12 8 6 11 13 10
5 8 10 3 6 8 4 3 2 3 6 4 2 3 3 3 3 3 3 2 3 3 2 3 1 3 4 3 0 1 2 1 1 1 2 2 1 2 2 5 5 5 5 8 9 9 9 9 5 3 10 15 12 5
9 11 11 4 10 7 3 5 4 3 7 2 3 2 2 3 3 3 3 2 3 3 3 2 3 3 3 1 2 1 1 1 1 2 1 1 4 3 5 8 8 6 7 7 7 5 8 6 8 11 11 12 4 3
11 12 8 14 7 3 4 3 8 4 3 4 2 3 3 3 3 2 3 4 5 2 3 3 4 2 2 2 2 2 2 1 1 2 2 3 6 6 6 7 5 9 6 7 8 7 8 7 11 11 9 9 6 2
7 9 8 7 7 13 3 2 4 4 3 3 2 3 3 0 2 5 4 3 2 3 3 3 3 2 3 2 5 3 2 1 1 2 2 3 3 6 8 7 5 5 2 2 2 4 5 4 9 9 7 6 5 4
6 8 3 5 3 4 4 7 3 2 3 3 0 3 2 2 3 3 4 2 3 4 4 3 4 5 4 4 3 2 2 3 3 3 7 7 3 3 4 5 2 2 1 2 3 3 6 8 8 6 5 4 2 4
9 6 3 4 3 3 4 4 5 4 3 3 2 3 3 2 4 4 3 3 3 2 3 3 6 9 5 8 11 10 9 8 2 2 7 8 7 7 7 6 5 2 1 4 5 4 6 7 6 6 3 1 3 4
8 3 4 4 6 5 3 4 4 3 3 3 4 5 4 4 4 3 4 2 1 4 4 6 6 6 8 7 5 4 8 12 9 10 12 7 3 5 11 10 11 6 3 4 8 5 6 7 7 5 4 2 6 5
4 5 4 5 3 2 3 4 3 3 2 3 3 3 3 3 4 4 2 3 4 5 4 5 5 5 5 3 3 5 12 11 2 4 10 7 11 8 8 13 11 15 11 10 11 12 12 12 9 8 4 2 3 5
1 3 5 5 3 4 4 3 2 1 1 3 4 3 3 2 3 5 3 5 4 6 6 6 5 6 6 5 2 3 8 13 11 1 10 10 11 7 3 1 2 4 13 10 11 13 13 13 13 9 7 8 6 7
3 3 2 1 3 4 4 3 3 2 3 4 4 4 1 4 3 3 2 5 3 9 14 15 13 8 5 7 11 16 16 12 7 8 13 11 14 16 14 4 1 7 11 11 11 11 12 13 12 12 7 9 9 9
2 3 2 4 2 1 2 3 3 4 3 4 5 4 4 4 3 2 3 7 9 11 13 16 16 15 13 14 16 14 17 20 12 4 8 8 13 17 19 17 17 15 15 13 12 11 11 11 11 12 5 5 9 7
2 3 3 4 4 3 4 5 3 2 3 2 2 3 2 2 3 3 8 13 15 14 12 11 14 17 18 16 16 18 12 19 13 6 6 4 4 10 23 19 19 18 17 17 15 10 12 10 9 9 9 11 10 6
4 1 2 2 1 2 2 2 2 3 2 3 2 3 3 2 8 14 14 14 12 10 13 14 13 17 12 12 12 18 17 8 10 6 1 2 6 19 19 19 18 16 15 16 16 15 12 10 11 11 10 7 4 4
2 3 3 1 2 2 3 4 3 2 1 1 1 3 3 3 7 14 15 15 14 15 15 13 13 11 17 14 10 7 7 10 13 6 7 8 12 17 18 16 16 15 15 15 15 14 13 12 9 11 12 6 7 12
2 1 2 2 4 3 4 4 2 1 3 3 4 2 3 3 2 2 7 13 13 10 10 13 11 11 16 15 16 15 15 18 16 7 8 11 14 16 17 16 15 13 12 12 12 11 11 10 9 6 13 15 16 15
3 3 2 2 4 5 4 4 4 5 4 3 3 2 3 2 3 0 5 9 15 13 11 10 13 14 14 14 14 14 13 12 5 7 10 12 14 14 14 16 13 10 8 8 7 2 3 7 12 15 16 17 18 17
Wind_Direction
62 67 71 74 77 82 84 87 90 91 88 85 82 82 83 90 97 99 56 75 110 100 45 59 74 98 83 90 126 195 65 354 41 73 116 209 151 214 241 247 177 202 173 204 85 178 246 27 328 203 228 247 260 264
66 68 72 76 78 80 82 85 87 87 88 88 83 80 81 92 94 97 71 73 77 74 140 86 83 78 89 147 126 33 147 124 167 87 58 104 71 49 159 274 223 278 188 199 184 231 288 296 254 269 261 248 243 229
68 69 71 75 76 77 78 80 81 84 87 91 91 89 90 87 85 90 76 81 81 73 9 46 59 88 94 91 115 107 354 147 87 148 155 166 169 133 194 242 224 280 186 219 14 251 242 254 268 254 263 239 236 230
68 72 73 75 78 81 82 82 84 86 87 87 91 88 87 86 84 82 67 61 80 102 98 309 59 67 120 129 110 107 123 85 101 80 106 147 170 174 231 241 213 199 25 249 259 274 266 259 259 267 267 250 257 256
68 70 74 76 77 76 79 83 86 88 89 90 94 95 89 86 86 79 64 51 49 109 141 227 316 23 61 149 125 132 115 105 94 82 120 213 231 166 238 252 250 176 234 198 247 251 244 268 253 253 283 287 275 269
72 74 76 78 80 82 82 83 86 88 92 93 94 93 84 83 88 67 47 34 35 51 86 63 316 1 57 176 161 144 139 115 139 148 191 221 232 138 209 242 225 204 220 230 254 252 269 275 274 237 264 289 295 309
63 68 73 76 77 77 78 78 78 81 88 88 90 77 70 68 73 69 102 63 40 38 72 44 4 317 189 106 60 114 144 163 140 185 208 197 202 179 225 265 266 275 267 267 267 275 279 217 244 264 270 279 283 267
62 65 67 68 69 71 74 76 78 79 82 85 88 78 78 71 76 59 52 50 49 73 67 86 292 26 15 55 31 172 155 98 223 201 210 205 147 190 250 257 266 261 265 264 252 270 270 275 269 268 267 287 292 285
67 72 73 71 69 68 67 65 62 63 67 74 77 76 51 36 45 58 67 57 53 73 99 78 113 227 349 220 194 15 104 72 246 196 207 138 190 225 232 233 242 251 228 234 250 261 301 279 280 281 276 274 274 263
61 63 67 69 69 68 65 59 52 48 50 41 26 39 24 40 92 100 39 30 20 346 43 109 136 300 97 8 318 72 37 225 239 237 112 177 246 249 248 247 252 253 249 262 282 297 264 276 271 289 290 286 288 297
53 54 55 58 57 55 52 43 31 17 29 36 28 52 83 102 30 32 65 42 327 34 186 223 177 189 326 108 228 178 206 206 236 253 164 232 263 260 358 312 266 257 293 308 271 274 298 312 306 299 289 273 291 307
41 36 35 37 39 41 40 36 31 41 28 344 301 338 95 36 32 78 261 306 168 228 240 160 201 202 195 111 92 296 226 88 246 133 152 262 243 194 242 292 32 53 42 17 5 339 329 322 306 305 294 296 297 293
354 349 352 353 1 14 17 21 21 3 1 55 65 51 63 315 65 132 201 262 73 179 206 153 214 143 114 140 209 66 78 235 60 64 228 227 209 24 322 327 76 50 35 10 334 321 318 315 326 313 310 307 301 289
327 308 308 291 293 306 336 359 7 7 14 66 96 358 143 278 238 178 219 176 221 151 184 159 174 187 181 174 183 220 239 63 344 294 240 224 196 210 48 25 29 352 352 335 319 318 318 316 311 304 293 298 296 291
356 337 303 272 259 241 239 330 3 23 6 346 22 238 220 231 255 201 208 80 280 178 106 41 144 172 173 219 192 215 351 248 205 240 330 43 50 26 18 2 348 340 330 318 309 312 307 302 301 297 301 309 299 303
330 325 328 314 260 224 182 166 78 3 5 268 243 263 272 50 303 0 65 205 245 84 64 78 168 218 229 213 199 209 209 206 229 310 15 316 163 133 91 329 317 304 289 292 295 299 301 296 294 298 308 311 316 326
311 283 343 347 229 178 173 135 137 30 245 242 255 209 170 226 226 224 176 220 154 97 197 131 176 214 242 217 207 210 131 129 236 238 298 293 292 174 266 308 306 292 297 293 297 297 295 305 314 315 321 329 326 325
249 277 304 302 181 148 181 162 195 227 237 234 231 235 197 193 199 234 223 191 121 184 138 214 185 228 219 225 71 82 88 353 313 282 305 19 338 278 281 291 301 308 305 312 316 310 313 311 307 303 318 327 321 307
274 285 259 270 225 178 195 199 182 246 230 225 237 209 197 231 227 195 174 187 146 145 133 177 227 225 226 139 135 130 117 250 282 301 271 228 255 255 289 299 288 298 306 316 323 320 322 337 345 343 334 340 302 287
275 273 278 249 255 210 218 205 179 230 239 221 203 205 189 203 198 184 165 160 147 155 197 216 216 210 190 125 164 169 165 143 320 311 291 298 302 318 320 302 276 297 292 313 328 344 342 344 351 353 354 4 17 11
298 271 246 250 217 209 262 236 188 223 241 209 220 167 231 91 179 196 201 147 135 196 220 206 174 125 152 179 177 165 146 145 223 221 247 285 289 301 298 314 302 314 246 295 302 322 348 328 342 352 3 17 41 94
257 254 244 215 253 232 230 211 226 205 201 227 160 180 205 194 212 216 137 171 212 218 190 155 151 158 160 160 169 144 226 263 350 354 358 335 312 328 316 304 302 311 197 223 287 304 322 336 345 344 353 26 79 95
258 230 224 239 258 249 247 178 216 208 235 234 168 202 242 212 207 130 180 218 219 174 158 134 143 149 149 138 112 82 69 59 27 338 340 324 324 356 343 332 293 248 261 260 262 290 310 326 340 349 326 244 134 124
205 215 220 226 209 254 267 215 197 246 218 197 197 203 222 202 156 190 208 186 129 120 134 146 140 123 111 114 103 87 59 42 14 353 4 21 17 341 360 347 334 262 255 341 3 286 287 302 310 321 350 330 224 211
253 201 197 250 304 271 276 298 273 224 280 299 237 232 235 167 190 213 92 37 24 45 61 81 89 107 115 100 98 75 43 24 16 342 326 359 350 336 341 19 43 45 36 26 10 352 343 340 289 273 276 215 175 157
260 298 2 3 335 315 334 290 294 223 234 274 351 351 311 265 108 43 47 3 10 27 32 35 64 77 63 48 41 7 343 356 355 315 312 326 325 300 296 320 339 338 5 358 349 342 333 331 328 280 262 221 213 195
25 313 329 331 291 288 300 284 282 313 353 356 1 312 343 62 59 89 106 6 354 29 49 53 49 52 53 32 14 17 9 357 332 296 309 355 43 44 28 25 49 351 351 346 343 341 340 341 337 320 238 220 213 212
249 59 338 286 336 275 235 310 33 27 13 340 333 6 25 32 60 44 37 12 37 56 54 48 44 51 43 37 31 22 19 19 24 75 132 56 34 31 27 18 12 4 355 339 318 309 320 322 330 334 317 236 216 221
360 310 46 329 319 2 23 12 37 22 308 356 5 6 74 56 5 44 35 46 60 54 42 37 33 34 27 21 25 26 26 31 38 31 13 331 341 345 352 346 345 350 351 352 350 312 303 289 303 305 311 289 240 215
288 29 21 318 103 51 266 195 233 252 248 214 171 106 92 76 51 74 69 63 58 51 47 48 51 40 24 13 352 354 10 3 30 62 157 295 302 330 335 335 336 335 340 343 337 333 329 321 303 286 282 281 252 212
297 7 3 294 274 257 255 270 295 292 352 240 303 125 128 138 100 79 75 71 60 46 36 22 18 18 6 358 346 332 326 346 332 329 343 336 339 342 340 334 331 327 325 329 329 322 319 316 307 308 266 208 159 146
2 190 117 277 293 298 356 19 284 300 327 30 6 35 130 122 90 51 58 47 43 30 13 2 0 345 349 343 339 335 324 318 323 282 316 329 335 339 339 334 329 326 321 322 319 316 306 303 298 189 152 136 133 127
347 26 19 27 352 354 313 35 355 341 1 33 26 37 42 82 84 87 77 24 15 3 2 359 349 345 341 340 340 342 337 341 341 324 319 325 330 331 330 335 334 328 323 314 314 322 74 108 112 113 110 108 112 116